Voltar ao catálogo

DELTA 1 DEB

AtivoPO
NORAD 42645·DEBRIS·🇺🇸 United States

Lançado Jun 12, 1975 de Vandenberg Space Force Base

Loading…

Próximas Passagens (próximas 24 horas)

TLE

AtualizadoSource: Space-Track

Época: Sep 14, 2026, 22:08 UTC

1 42645U 75052ME  26257.92253652 -.00000050  00000-0 -42973-4 0  9992
2 42645  99.7146 143.9380 0269971   2.2805  55.0433 12.90068853474476

Acompanhe DELTA 1 DEB em tempo real com AllMySat

Download on the App Store